Location: ??
(34.9170°N, 135.5016°E)
Time: 15:56:52
(UTC+00:00)

Transit 2A - All Passes

Search period start: 27 February 2021 00:00
Search period end: 09 March 2021 00:00
Orbit: 600 x 958 km, 66.7° (Epoch: 26 February)

Date Brightness Start Highest point End Pass type
(mag) Time Alt. Az. Time Alt. Az. Time Alt. Az.
27 Feb - 10:08:06 10° SSW 10:13:47 90° WNW 10:18:54 10° NNE visible
27 Feb - 11:55:38 10° WNW 11:57:27 12° NW 11:59:14 10° NNW visible
27 Feb - 18:58:49 10° N 19:02:37 29° ENE 19:06:26 10° ESE visible
27 Feb - 20:42:17 10° WNW 20:45:31 21° WSW 20:48:48 10° SSW visible
28 Feb - 09:34:05 10° SSW 09:39:38 60° ESE 09:44:41 10° NE visible
28 Feb - 11:19:34 10° W 11:23:03 17° NW 11:26:21 10° NNW visible
28 Feb - 18:25:11 10° N 18:28:19 19° NE 18:31:26 10° E visible
28 Feb - 20:07:34 10° NW 20:11:29 33° WSW 20:15:28 10° S visible
01 Mar - 09:00:19 10° S 09:05:31 39° ESE 09:10:17 10° NE daylight
01 Mar - 10:44:17 10° WSW 10:48:43 25° NW 10:52:51 10° N visible
01 Mar - 17:52:04 10° NNE 17:53:55 12° NE 17:55:48 10° ENE visible
01 Mar - 19:33:09 10° NW 19:37:23 57° WSW 19:41:44 10° SSE visible
02 Mar - 08:26:54 10° SSE 08:31:27 26° ESE 08:35:40 10° NE daylight
02 Mar - 10:09:23 10° SW 10:14:27 36° WNW 10:19:05 10° N visible
02 Mar - 18:58:55 10° NNW 19:03:16 85° ENE 19:07:41 10° SSE visible
03 Mar - 07:53:59 10° SE 07:57:24 17° ESE 08:00:38 10° ENE daylight
03 Mar - 09:34:48 10° SW 09:40:14 55° WNW 09:45:10 10° NNE visible
03 Mar - 18:24:51 10° NNW 18:29:05 51° ENE 18:33:23 10° SE visible
03 Mar - 20:10:24 10° W 20:11:42 11° WSW 20:13:02 10° WSW visible
04 Mar - 07:22:58 10° ESE 07:23:24 10° ESE 07:23:49 10° E daylight
04 Mar - 09:00:27 10° SSW 09:06:03 83° WNW 09:11:06 10° NNE daylight
04 Mar - 10:48:49 10° WNW 10:49:46 10° NW 10:50:42 10° NW visible
04 Mar - 17:50:58 10° N 17:54:52 31° ENE 17:58:48 10° ESE night (unlit)
04 Mar - 19:34:40 10° WNW 19:37:43 19° WSW 19:40:50 10° SSW night (unlit)
05 Mar - 08:26:22 10° SSW 08:31:54 65° ESE 08:36:54 10° NNE daylight
05 Mar - 10:12:13 10° W 10:15:22 16° NW 10:18:20 10° NNW visible
05 Mar - 17:17:17 10° N 17:20:34 21° NE 17:23:52 10° ESE night (unlit)
05 Mar - 18:59:52 10° NW 19:03:40 30° WSW 19:07:35 10° S night (unlit)
06 Mar - 07:52:33 10° S 07:57:47 42° ESE 08:02:33 10° NE daylight
06 Mar - 09:36:49 10° WSW 09:41:00 23° NW 09:44:56 10° N visible
06 Mar - 16:44:00 10° NNE 16:46:12 14° NE 16:48:24 10° E night (unlit)
06 Mar - 18:25:24 10° NW 18:29:36 51° WSW 18:33:55 10° S night (unlit)
07 Mar - 07:19:03 10° SSE 07:23:42 27° ESE 07:27:59 10° NE daylight
07 Mar - 09:01:50 10° WSW 09:06:44 33° WNW 09:11:13 10° N daylight
07 Mar - 17:51:08 10° NNW 17:55:28 87° WSW 17:59:56 10° SSE night (unlit)
08 Mar - 06:46:02 10° SSE 06:49:38 18° ESE 06:53:02 10° ENE daylight
08 Mar - 08:27:12 10° SW 08:32:30 50° WNW 08:37:20 10° NNE daylight
08 Mar - 17:17:02 10° NNW 17:21:19 56° ENE 17:25:41 10° SE night (unlit)
08 Mar - 19:03:36 10° WSW 19:03:54 10° WSW 19:04:12 10° WSW night (unlit)
